Wind_Speed
23 23 22 22 20 19 19 19 19 19 19 19 17 13 11 11 9 8 8 9 11 13 15 16 18 20 21 21 19 18 18 18 19 20 21 22 23 24 25 25 26 26 25 24 23 22 22 23 23 24 24 25 25 26 26 26 26 27 27 27 28 28 28 29 29 29 29 29 29
26 26 25 23 20 19 20 20 19 19 18 17 16 13 11 11 11 11 11 12 15 17 18 19 21 21 20 19 17 17 17 18 20 21 22 23 23 24 25 25 25 24 23 23 23 23 23 24 24 25 26 26 27 27 27 27 27 27 28 28 28 28 29 29 29 29 29 29 30
27 26 25 22 20 20 19 18 16 15 14 13 12 12 11 11 12 12 13 14 16 18 19 20 19 18 17 15 15 16 17 19 20 21 22 22 22 23 23 23 23 23 23 24 24 25 25 26 27 27 27 28 28 28 28 28 28 28 28 28 28 28 28 28 29 29 29 29 29
27 26 23 21 18 17 16 14 14 13 12 12 11 11 11 11 12 12 14 15 16 17 17 16 15 15 14 15 16 18 19 20 21 21 21 21 21 22 22 23 24 25 25 26 27 27 28 28 28 29 29 29 29 29 28 28 28 27 27 27 27 27 27 28 28 28 28 28 28
25 23 20 19 16 15 16 15 15 13 13 12 11 11 11 11 12 13 15 15 16 15 15 15 15 15 16 17 19 20 21 21 21 20 20 21 21 22 24 25 25 26 27 28 28 29 29 29 29 29 29 29 28 28 28 28 27 27 27 27 27 27 27 27 27 27 27 28 28
19 18 17 17 17 17 17 16 14 13 12 12 12 11 12 13 14 15 15 15 16 16 16 16 16 17 18 19 20 20 20 20 20 20 20 21 23 24 25 26 27 27 28 29 29 29 29 29 29 29 28 28 28 28 27 27 27 27 27 27 27 27 27 27 27 27 27 27 28
17 16 15 15 16 16 16 15 14 14 13 13 13 13 14 14 15 16 16 17 17 17 17 17 17 18 18 19 19 19 19 19 20 20 22 23 24 25 26 27 28 28 28 29 29 29 29 29 28 28 28 27 27 27 27 26 26 27 27 27 27 27 27 27 27 27 27 27 28
15 14 13 13 13 13 13 13 13 13 13 13 14 14 15 16 17 17 18 18 18 17 16 16 16 16 17 17 18 18 19 20 21 22 23 24 25 26 27 28 28 28 28 28 29 29 28 28 28 27 27 27 27 27 27 26 26 26 27 28 28 28 28 28 28 28 28 28 28
11 10 9 9 10 10 10 11 12 12 13 14 14 15 16 17 18 18 18 17 16 15 15 15 15 16 16 17 18 19 20 21 22 23 24 25 26 27 28 28 28 28 28 28 28 27 27 27 27 27 27 26 27 27 27 27 27 28 28 29 29 29 29 29 29 29 29 29 30
9 9 8 8 9 9 9 10 11 12 14 14 14 14 15 17 17 16 15 15 14 14 14 15 15 16 17 18 19 19 20 21 23 24 25 26 26 26 26 27 27 27 27 26 26 26 26 26 26 26 26 27 27 28 28 29 29 30 30 31 31 31 31 31 30 30 30 31 31
11 10 10 9 9 10 11 12 13 14 15 15 15 16 16 17 16 15 14 14 14 14 15 15 16 16 18 18 19 20 21 22 23 24 24 24 24 24 25 25 25 25 26 26 26 26 26 27 27 28 28 28 28 29 29 30 30 31 31 32 32 32 32 32 32 32 32 32 32
12 11 11 11 11 12 13 14 14 15 16 16 18 18 18 17 15 14 13 13 13 14 15 15 16 17 18 19 20 20 21 22 22 22 22 23 23 24 24 24 25 25 26 26 26 27 27 28 28 29 29 29 29 30 30 30 31 31 32 32 32 33 33 33 33 32 32 32 33
13 13 13 13 14 14 14 15 16 16 17 18 18 18 17 15 13 12 12 12 13 14 15 16 16 17 18 19 20 20 21 21 21 22 22 23 24 24 25 25 26 26 26 27 27 27 28 28 28 29 29 30 30 30 30 31 31 32 32 32 33 33 33 33 33 33 33 33 33
13 14 14 15 15 15 16 16 17 18 18 17 16 15 13 12 11 11 11 12 13 14 15 16 17 18 19 19 20 20 20 21 22 22 23 24 25 25 26 26 26 27 27 27 27 27 27 28 28 28 29 29 30 30 30 31 31 32 32 32 33 33 33 33 33 33 33 33 33
13 14 14 14 15 16 16 17 17 16 15 14 13 12 11 10 10 11 12 13 14 15 16 17 18 19 20 20 20 21 21 22 23 23 24 25 25 26 26 26 26 27 27 27 27 27 28 28 28 29 29 30 31 31 31 31 31 32 32 32 33 33 33 33 33 33 33 33 34
14 13 13 13 13 14 15 15 14 13 12 11 10 10 10 10 11 12 13 15 16 17 18 19 19 20 20 20 21 22 23 23 24 24 25 25 26 26 26 26 26 27 27 27 28 28 28 29 29 30 30 31 31 31 31 31 31 31 32 32 32 32 33 33 33 33 33 33 34
12 12 12 12 12 12 12 12 11 11 10 10 10 10 11 11 12 14 15 17 18 19 19 20 20 20 21 22 22 23 24 25 25 25 26 26 26 27 27 27 27 27 27 27 28 28 29 29 29 30 30 31 31 31 31 31 31 31 31 32 32 32 32 32 32 32 32 32 32
10 10 10 11 11 11 11 10 10 9 10 10 10 11 12 13 14 15 17 19 20 20 20 21 21 21 22 23 24 25 26 26 27 27 27 27 27 27 27 28 28 28 28 28 28 28 29 29 29 30 30 30 31 31 31 31 31 31 31 31 31 31 31 31 31 31 30 31 31
10 10 10 10 10 10 10 10 9 10 10 10 11 12 13 14 15 17 19 20 21 21 21 21 22 22 23 24 25 26 27 27 28 28 29 29 28 29 29 29 29 29 28 28 28 28 29 29 29 30 30 31 31 31 31 31 31 31 31 31 31 31 31 31 32 32 32 33 33
11 10 10 10 10 9 9 9 10 10 10 11 12 13 14 16 17 18 20 21 21 21 21 22 23 24 25 26 26 27 28 28 28 29 30 30 30 30 30 30 30 30 29 29 29 29 29 29 30 30 31 31 31 31 31 31 31 31 31 31 31 31 31 32 33 34 35 36 37
10 10 9 9 9 9 9 10 10 10 11 12 13 14 16 17 18 19 19 20 20 21 21 22 23 25 26 27 27 28 29 29 30 31 31 32 32 32 31 31 31 30 29 29 29 29 29 29 30 30 30 30 31 31 31 31 31 31 31 32 33 34 34 35 36 37 39 40 41
10 9 9 9 9 9 9 9 10 11 12 13 14 15 17 17 18 19 19 19 20 21 22 23 24 25 27 28 29 30 31 31 32 32 32 32 32 31 31 30 30 30 29 29 29 29 29 29 29 30 30 30 30 30 30 30 30 30 31 33 35 36 37 37 38 39 39 39 39
12 12 13 14 13 12 11 11 11 12 13 14 15 16 17 18 18 18 19 19 20 21 23 24 26 27 29 30 30 31 32 32 32 32 32 31 31 30 30 29 29 29 29 29 29 29 29 29 29 29 29 30 30 30 30 30 31 32 33 34 36 36 36 36 37 37 37 38 38
19 21 21 20 17 14 12 12 12 13 14 15 16 17 17 17 18 18 19 20 21 23 24 26 28 29 30 30 31 31 31 31 31 31 31 30 30 29 29 29 29 29 29 29 29 29 29 29 29 30 30 30 30 30 30 31 33 34 35 36 36 37 37 37 37 37 37 37 36
25 23 20 16 12 11 11 12 13 14 15 15 16 17 17 17 17 18 19 21 23 25 27 28 29 30 30 30 30 30 30 29 29 29 30 30 29 29 29 29 29 29 29 29 29 29 29 29 29 30 30 31 31 32 33 33 34 35 36 36 36 37 38 39 39 38 38 36 35
20 16 12 10 10 11 12 13 13 14 15 16 16 16 16 16 17 19 21 23 25 27 28 29 29 29 29 29 29 28 28 28 28 28 29 29 29 29 28 28 29 29 29 29 29 29 29 29 29 29 30 32 32 34 35 35 35 35 35 36 37 38 39 39 39 38 37 36 34
11 9 9 10 11 12 13 13 14 15 15 16 15 16 16 17 19 21 24 26 28 29 29 29 29 28 28 27 27 27 27 27 28 28 28 28 29 29 29 29 29 29 29 29 29 29 28 29 29 30 31 32 33 34 35 35 35 35 36 36 37 38 38 38 37 36 35 34 34
9 10 11 11 12 13 13 14 15 15 15 15 15 16 18 20 23 25 27 28 29 29 29 28 28 27 27 26 26 27 27 28 28 28 28 29 29 29 29 29 29 29 29 29 28 28 29 29 30 31 32 33 35 35 36 36 36 37 37 37 37 37 37 36 35 35 34 33 33
11 11 12 12 13 14 14 14 15 15 15 15 17 18 21 23 26 27 28 29 29 28 28 27 27 27 26 27 27 28 28 28 28 28 28 28 28 28 29 29 29 29 29 28 28 29 30 31 32 34 35 37 38 39 40 39 39 38 37 36 35 35 34 33 33 33 33 33 33
12 13 13 14 14 15 15 15 14 15 15 17 19 21 24 26 28 29 29 29 28 28 27 27 27 27 27 27 28 28 28 28 27 27 27 28 28 28 29 29 29 29 29 29 29 30 31 33 35 36 38 39 40 40 40 39 38 35 34 32 32 31 31 32 32 32 33 33 33
14 14 14 15 15 15 15 15 15 16 17 19 22 24 27 28 29 29 29 29 28 28 27 27 27 27 27 27 27 27 27 27 27 27 27 28 28 29 29 29 29 29 29 29 30 32 33 35 37 38 39 39 38 37 35 32 30 29 29 29 29 30 31 31 32 32 32 32 33
15 15 15 15 15 15 15 16 17 18 20 22 25 27 29 30 30 30 29 29 28 28 27 27 26 27 27 27 27 27 27 27 27 28 28 28 29 29 29 29 29 29 29 30 31 33 35 37 38 38 37 35 32 29 27 26 26 26 27 28 29 30 30 31 31 31 31 31 32
16 16 16 15 15 16 16 17 18 20 22 24 26 28 29 29 30 30 29 29 27 27 26 26 26 26 27 27 27 27 27 28 28 28 29 28 29 29 29 29 29 29 30 31 33 35 37 38 37 35 32 29 26 24 24 24 25 26 27 28 29 29 29 29 30 30 30 31 31
16 16 16 16 16 16 17 18 19 21 23 25 27 28 29 29 29 29 29 27 26 25 25 25 26 26 27 27 27 27 28 28 28 28 28 28 28 28 29 29 30 30 32 34 36 37 37 36 34 30 26 23 22 22 23 24 25 26 28 28 28 29 29 29 29 30 30 30 31
16 16 15 15 15 15 16 18 19 21 23 24 26 28 29 29 29 28 27 26 25 25 25 25 26 27 27 27 27 27 27 28 28 28 28 28 28 29 30 30 31 33 34 36 37 37 35 32 28 24 21 20 21 22 24 25 27 28 28 29 29 29 29 29 29 29 29 30 30
15 14 14 14 15 15 16 18 19 21 22 24 26 28 28 28 27 26 25 24 24 25 25 26 27 27 27 27 27 27 27 27 27 27 27 28 28 29 31 32 34 36 37 38 37 34 30 25 21 19 19 20 22 24 25 27 29 30 31 31 31 30 30 29 29 29 28 28 29
13 13 14 14 15 16 17 18 19 21 22 24 26 27 27 26 25 25 24 24 24 25 26 27 27 27 27 27 27 27 27 26 27 27 27 28 28 30 31 33 36 38 39 37 33 28 23 20 18 18 19 21 24 26 28 30 31 32 33 33 32 31 30 29 28 27 27 27 27
12 12 13 14 15 16 17 18 19 21 22 24 25 26 26 25 24 24 24 24 25 26 26 27 27 26 26 26 26 27 27 27 27 27 27 28 29 31 33 36 38 39 37 32 27 22 19 18 18 19 21 24 26 28 30 32 33 34 34 33 33 31 29 27 26 25 26 27 28
12 13 14 14 16 17 18 18 20 22 24 25 25 25 25 24 24 25 25 25 25 25 26 26 26 26 26 26 26 27 27 27 27 27 28 29 31 33 35 37 38 36 32 27 22 20 18 18 19 21 23 26 29 31 32 33 34 34 33 32 30 27 25 24 24 25 28 30 31
15 15 15 16 16 17 18 20 23 25 26 25 25 25 25 25 25 25 25 25 25 25 25 25 26 26 26 26 26 27 27 27 28 28 29 31 33 35 36 36 35 32 28 24 21 19 19 20 21 23 25 28 31 32 33 32 32 31 29 26 24 23 23 24 26 29 31 32 33
16 16 16 16 16 18 21 24 26 27 26 24 24 24 25 25 26 25 25 25 25 25 25 26 26 26 26 26 26 27 27 28 29 30 31 33 34 35 35 34 32 29 26 23 21 20 20 21 22 24 26 29 32 32 31 28 26 24 23 22 22 23 25 28 30 32 33 34 34
Wind_Direction
218 217 218 218 221 226 232 237 240 238 233 228 227 226 227 227 225 228 237 247 259 268 275 280 284 287 289 289 287 284 281 279 278 277 278 277 278 279 281 283 286 289 291 292 291 289 288 286 285 284 284 283 282 282 281 281 280 280 280 279 278 278 278 277 277 277 276 276 275
220 220 220 221 227 236 243 247 246 242 235 230 230 230 230 229 230 237 248 259 266 272 279 283 287 289 289 286 283 280 278 277 278 279 280 280 280 282 284 288 291 293 294 293 291 290 288 286 285 284 283 283 282 282 282 281 281 281 280 279 279 279 278 278 277 277 276 276 275
223 223 224 227 236 245 249 248 241 233 229 227 227 228 230 234 240 249 260 270 277 282 285 288 290 289 287 283 280 279 279 281 283 283 283 283 284 286 289 292 294 295 295 294 292 291 289 288 286 285 284 284 283 283 283 283 283 282 281 280 280 279 279 278 278 277 277 276 275
227 228 231 237 243 245 242 232 224 219 216 217 219 224 231 241 252 264 275 283 289 292 293 293 290 286 283 281 281 282 283 285 285 284 284 285 287 289 292 294 295 296 296 295 294 293 292 290 289 287 286 285 285 284 284 284 284 283 282 281 280 279 279 278 278 277 276 276 275
231 234 238 242 239 234 228 219 212 208 210 214 221 230 243 256 270 280 287 291 292 292 291 287 284 281 279 280 281 282 283 283 283 283 283 285 288 290 293 295 295 296 296 295 295 294 293 292 291 289 288 287 286 285 285 285 284 283 282 281 280 279 278 278 277 277 276 275 275
237 240 243 242 237 229 221 214 211 212 218 225 235 249 264 274 281 285 287 288 288 286 285 282 280 279 279 280 281 282 283 283 282 283 285 287 289 292 294 295 295 295 295 295 294 294 293 292 291 289 288 287 285 285 285 285 283 282 281 280 280 279 278 277 277 276 276 275 274
248 248 244 237 232 227 222 219 221 226 233 242 254 266 275 279 282 284 285 286 286 286 285 283 281 281 281 282 283 283 284 284 284 286 288 290 292 293 294 294 294 293 293 293 293 293 292 291 289 287 286 285 284 284 284 283 282 281 280 280 279 279 278 277 277 276 275 275 274
250 248 242 234 230 226 226 227 231 238 246 257 267 273 276 278 282 285 287 289 288 287 286 284 282 282 282 284 284 284 284 284 286 287 289 291 292 292 293 293 292 292 291 292 291 291 291 290 287 285 284 283 282 282 282 282 281 280 279 278 278 278 277 276 276 275 275 274 273
238 232 225 222 222 224 227 233 241 249 259 268 273 275 278 282 286 289 291 291 289 287 285 283 282 282 284 285 285 284 284 285 286 287 288 289 290 290 290 290 290 290 290 290 290 289 288 287 284 282 281 281 280 280 281 281 279 278 277 277 277 277 276 275 275 274 274 274 273
214 205 201 204 211 219 230 242 254 264 272 276 278 280 284 289 291 292 291 290 288 286 284 283 283 284 284 285 284 284 284 285 286 287 288 288 288 288 288 288 288 288 288 288 288 287 286 284 282 280 280 279 279 279 279 279 278 277 277 277 277 276 275 275 274 273 273 273 273
203 199 200 207 219 232 246 257 267 273 276 278 280 283 287 291 291 290 289 288 286 283 283 284 284 283 283 282 282 283 284 286 287 288 288 289 289 289 289 289 289 288 288 287 287 286 285 283 282 281 280 279 278 278 278 278 277 277 277 277 277 277 276 275 274 274 273 273 273
209 211 217 228 241 252 261 267 271 273 276 278 282 285 289 291 291 290 288 286 284 283 283 283 282 281 281 281 283 284 285 287 288 289 290 291 291 290 290 289 288 288 287 286 285 284 283 282 281 281 280 279 279 278 278 277 277 277 277 277 277 277 277 276 276 275 275 274 274
226 233 241 250 257 263 266 269 271 275 280 284 287 291 294 294 293 289 286 285 285 284 283 282 281 281 281 283 284 285 287 288 289 290 291 291 290 290 289 288 287 286 286 285 284 283 282 281 281 280 280 280 279 279 278 278 278 278 278 278 277 277 277 277 277 276 276 275 275
249 256 261 265 267 269 271 274 278 283 286 289 292 295 295 291 289 287 286 285 285 284 283 282 282 283 283 284 285 286 287 289 290 290 290 290 289 289 288 287 287 287 286 286 285 284 283 282 282 282 281 281 281 280 280 279 279 278 278 278 278 277 277 277 277 277 277 276 276
270 270 270 271 274 277 281 285 288 290 290 290 291 291 287 285 286 287 287 286 285 284 284 285 285 285 285 285 286 287 288 289 290 291 290 290 290 289 288 288 287 287 287 286 286 285 284 283 283 282 282 281 281 281 280 280 279 278 278 278 277 277 277 277 277 277 277 277 277
273 272 271 273 278 284 287 289 289 288 287 286 285 284 284 285 287 289 289 288 287 286 287 287 287 287 286 286 286 288 289 290 291 291 290 290 289 289 288 287 287 287 286 286 286 285 284 283 283 282 282 282 281 281 281 280 280 279 278 277 277 277 277 277 277 277 277 277 276
268 268 269 273 277 281 283 283 283 281 280 280 281 283 286 289 291 292 291 290 289 288 288 288 287 287 286 287 288 289 290 291 291 290 290 289 289 288 288 287 287 287 286 286 286 286 285 284 283 283 282 282 281 281 281 280 280 279 278 278 277 277 277 277 277 277 277 277 276
260 262 266 270 273 276 278 278 278 278 279 281 284 288 291 293 294 294 293 292 290 289 289 288 287 287 287 288 289 290 291 291 291 291 290 290 289 288 288 288 287 287 287 286 286 285 285 285 284 283 282 281 281 280 280 280 279 279 278 278 278 277 277 276 276 276 276 275 275
258 263 267 270 273 276 277 277 278 280 282 285 289 293 295 296 296 295 294 292 291 290 289 288 288 288 288 289 291 292 292 291 291 291 290 290 289 289 288 288 288 288 287 287 286 285 285 284 284 283 282 282 281 281 281 280 280 279 279 278 278 276 275 274 273 273 272 272 273
264 268 270 273 275 277 278 278 280 283 286 290 294 296 296 296 295 295 294 293 292 291 290 289 288 289 290 291 292 292 292 292 291 290 290 290 290 290 290 290 290 289 288 287 286 286 285 285 284 284 283 283 283 282 281 281 280 279 278 277 275 274 273 272 271 271 271 271 271
267 269 271 274 277 278 279 280 283 288 291 294 295 294 294 294 294 294 294 293 292 291 290 290 290 291 292 292 293 292 292 292 292 291 291 291 292 292 292 292 291 291 290 289 288 288 287 287 286 286 285 284 283 283 282 281 280 279 277 275 273 272 272 272 273 273 274 274 274
258 259 263 270 274 276 279 283 286 289 291 291 291 292 292 293 293 294 294 293 293 292 291 292 292 293 293 293 293 293 293 293 293 293 294 294 294 295 295 294 293 292 291 291 290 290 289 288 287 287 286 285 284 283 282 281 280 278 276 275 274 273 274 274 276 277 278 279 278
248 252 259 264 268 271 275 279 282 285 286 288 289 290 292 293 294 294 294 294 293 293 294 294 295 295 295 295 295 295 295 295 296 296 297 297 297 296 295 294 293 292 292 291 291 290 289 288 288 287 286 285 283 282 281 280 278 277 276 275 275 276 276 278 279 280 281 282 281
259 267 272 274 275 275 276 278 280 282 284 286 289 291 292 293 294 294 294 294 295 296 297 297 298 298 298 297 297 297 297 297 298 298 299 299 298 297 295 295 294 293 292 292 291 290 289 288 288 288 287 285 283 282 280 278 277 276 276 276 277 278 279 280 281 281 281 281 280
277 282 284 284 281 276 274 275 277 280 284 287 289 291 293 293 294 295 296 296 298 299 300 301 301 301 301 301 301 301 300 300 299 299 299 299 298 297 295 294 293 293 292 291 290 290 289 289 290 289 287 285 283 281 280 279 278 278 278 278 279 280 281 282 282 282 281 280 278
289 290 287 278 271 268 270 274 278 282 285 287 289 291 293 295 296 297 299 301 303 304 305 305 305 305 305 304 304 303 302 301 300 299 298 297 297 295 293 292 292 292 291 291 290 291 291 291 290 289 286 285 283 282 282 282 281 281 281 282 282 282 283 283 283 282 281 279 277
292 282 270 265 266 268 272 276 280 283 285 287 290 292 295 297 299 301 304 306 307 308 309 309 308 308 307 305 304 302 301 300 299 298 297 296 295 294 292 292 292 292 291 291 291 292 292 291 289 287 285 285 285 285 285 285 285 284 284 284 283 283 282 282 281 281 280 278 277
275 269 266 266 268 271 275 278 281 283 285 287 291 294 297 301 304 307 309 310 311 311 311 310 309 308 306 303 302 301 300 300 298 297 296 295 294 294 293 293 293 292 292 292 292 291 290 288 286 284 284 284 284 284 285 285 285 285 284 284 283 282 281 281 280 280 279 278 278
267 267 267 269 271 274 276 278 279 281 284 287 292 297 302 307 310 312 312 313 312 312 311 309 308 307 305 303 302 302 301 300 299 298 297 296 295 295 294 294 293 292 292 291 290 289 287 284 283 282 282 282 283 283 284 284 285 285 284 283 283 282 282 281 281 280 279 279 279
266 267 268 270 272 274 275 275 277 279 283 289 296 303 309 312 313 313 313 312 312 311 310 308 307 306 305 305 304 303 302 301 300 298 298 297 296 295 294 293 293 292 292 291 289 287 285 284 283 283 284 284 285 285 285 285 286 286 286 285 285 285 284 284 283 282 281 281 280
264 265 266 268 270 271 271 272 274 278 285 294 302 309 313 314 314 313 312 312 311 311 311 310 308 307 307 306 305 303 301 300 299 298 297 296 295 294 294 294 293 293 292 291 289 287 286 286 287 288 289 289 290 289 289 290 290 290 290 290 289 288 287 286 285 284 283 283 282
265 264 265 266 266 266 267 269 273 280 289 299 307 311 314 314 313 312 312 312 312 312 312 311 309 308 307 306 304 302 300 299 298 297 297 296 295 295 295 295 294 294 293 291 289 289 289 291 292 293 294 295 295 295 296 296 296 295 294 292 291 290 289 288 287 286 285 285 284
266 264 263 262 262 262 265 269 275 284 294 303 309 312 313 313 312 312 313 314 313 312 311 309 308 306 305 304 303 301 300 299 298 297 297 297 297 296 296 296 295 294 293 292 292 293 294 296 297 298 298 299 300 300 300 299 298 297 296 295 294 293 292 290 289 288 288 287 286
266 262 259 258 258 261 265 271 279 289 298 305 309 312 312 311 311 312 313 314 313 310 308 307 305 304 303 302 301 300 300 299 298 298 298 298 298 297 296 296 295 295 294 294 296 297 299 300 300 301 302 303 304 303 303 301 300 299 299 298 298 297 295 293 292 291 290 289 288
265 260 257 255 256 259 266 274 284 294 301 306 309 311 312 311 311 312 312 311 310 307 306 304 304 303 302 301 301 300 300 299 299 299 299 298 298 297 297 296 296 296 297 298 300 302 302 303 303 305 307 308 308 308 307 305 304 303 302 301 300 299 297 296 294 293 292 291 290
264 259 254 253 255 262 271 282 291 298 303 307 309 311 311 311 311 310 309 308 306 305 304 304 304 304 303 302 302 301 301 300 300 300 299 299 298 298 297 297 297 298 300 302 304 305 305 305 307 310 313 314 313 312 310 308 306 305 303 301 300 299 298 297 295 294 293 293 292
262 256 254 255 261 270 281 291 298 302 305 308 310 311 310 309 308 307 306 306 305 305 305 305 305 304 304 303 302 302 301 301 301 301 300 299 298 298 298 298 299 301 303 306 307 307 308 309 312 316 318 318 316 314 311 308 306 304 302 300 299 298 298 297 296 295 295 295 294
257 253 255 261 271 281 291 298 302 305 308 309 310 309 308 306 305 305 306 306 306 305 305 306 305 304 304 303 302 302 302 302 301 301 300 299 298 298 299 300 302 304 307 309 310 311 312 315 318 321 322 320 317 313 309 306 303 301 299 298 297 297 297 296 295 295 294 294 293
249 251 258 269 281 291 298 303 306 309 310 310 309 307 306 305 305 306 307 307 307 306 306 305 304 304 303 303 303 303 302 302 301 300 299 298 298 299 300 302 304 308 311 314 315 315 317 320 323 324 323 321 316 311 307 304 301 299 298 297 297 297 296 296 295 295 295 295 294
252 259 269 280 290 297 302 306 309 311 312 310 307 305 305 306 307 308 308 308 308 307 305 304 304 304 304 304 304 303 303 302 301 299 298 299 300 301 303 305 308 312 316 318 319 320 321 323 324 324 323 319 314 310 307 304 301 299 299 298 298 298 298 298 298 298 298 298 297
263 272 281 289 295 300 305 310 312 313 311 308 305 305 306 308 309 309 309 308 307 306 305 304 304 304 304 304 304 304 303 302 300 299 299 300 302 304 306 309 313 316 320 321 321 321 322 323 323 323 320 317 313 311 309 307 305 303 302 301 301 300 301 301 301 301 301 299 298
Height
1476 1476 1477 1478 1479 1480 1481 1481 1481 1482 1482 1482 1482 1482 1482 1482 1482 1482 1482 1482 1483 1483 1483 1484 1484 1484 1484 1484 1484 1484 1484 1483 1483 1483 1482 1482 1481 1480 1480 1479 1478 1478 1477 1477 1476 1476 1475 1475 1475 1474 1473 1473 1472 1471 1471 1471 1470 1470 1469 1468 1468 1467 1467 1467 1466 1466 1465 1465 1465
1473 1474 1475 1476 1478 1479 1480 1480 1481 1481 1481 1481 1481 1481 1480 1480 1480 1481 1481 1481 1482 1482 1483 1483 1483 1483 1483 1483 1482 1482 1482 1482 1481 1481 1480 1479 1479 1478 1478 1477 1476 1476 1475 1475 1474 1474 1473 1473 1473 1472 1471 1470 1470 1469 1468 1468 1468 1468 1467 1466 1466 1465 1465 1464 1464 1463 1463 1463 1463
1472 1473 1474 1476 1478 1478 1479 1479 1480 1480 1480 1479 1479 1479 1479 1479 1479 1479 1480 1480 1480 1481 1481 1481 1481 1481 1481 1481 1481 1480 1480 1480 1479 1478 1478 1477 1477 1476 1475 1475 1474 1474 1473 1473 1473 1472 1472 1471 1471 1470 1469 1468 1468 1467 1466 1466 1466 1465 1464 1464 1463 1463 1463 1462 1461 1461 1461 1461 1460
1472 1473 1474 1476 1477 1478 1478 1478 1478 1478 1478 1478 1478 1478 1478 1478 1478 1478 1479 1479 1479 1479 1479 1479 1479 1479 1479 1479 1479 1479 1478 1478 1477 1477 1476 1475 1475 1474 1473 1473 1473 1472 1471 1471 1471 1470 1470 1469 1468 1468 1467 1466 1465 1464 1464 1463 1463 1463 1462 1461 1461 1461 1460 1460 1459 1459 1459 1458 1458
1472 1473 1474 1475 1476 1476 1476 1476 1476 1476 1477 1477 1477 1477 1477 1478 1478 1478 1478 1478 1478 1478 1478 1478 1478 1478 1478 1478 1477 1477 1477 1476 1475 1475 1474 1473 1473 1472 1472 1471 1471 1470 1469 1469 1468 1468 1468 1467 1466 1465 1464 1463 1463 1462 1462 1461 1461 1460 1460 1459 1459 1458 1458 1458 1457 1457 1457 1456 1456
1472 1473 1473 1474 1474 1474 1474 1475 1475 1475 1475 1476 1476 1476 1477 1477 1477 1477 1477 1477 1477 1477 1477 1477 1477 1476 1476 1476 1476 1475 1474 1474 1473 1473 1472 1472 1471 1470 1470 1469 1469 1468 1468 1467 1466 1466 1465 1465 1464 1463 1462 1461 1461 1460 1459 1459 1459 1458 1458 1457 1457 1456 1456 1456 1455 1455 1455 1454 1454
1472 1472 1473 1473 1473 1473 1473 1474 1474 1474 1475 1475 1475 1476 1476 1476 1476 1475 1475 1475 1475 1475 1475 1475 1475 1475 1474 1474 1473 1473 1473 1472 1471 1471 1470 1470 1469 1468 1468 1467 1467 1466 1466 1465 1464 1464 1463 1463 1462 1461 1460 1459 1458 1458 1458 1457 1457 1456 1455 1455 1454 1454 1454 1453 1453 1453 1453 1452 1452
1471 1471 1471 1472 1472 1473 1473 1473 1473 1474 1474 1474 1474 1474 1474 1474 1474 1474 1473 1473 1473 1473 1473 1473 1473 1473 1473 1472 1472 1471 1471 1470 1469 1469 1468 1468 1467 1466 1466 1465 1465 1464 1463 1463 1462 1461 1461 1460 1459 1458 1458 1457 1456 1456 1455 1455 1455 1454 1453 1453 1452 1452 1452 1452 1451 1451 1450 1450 1449
1470 1470 1471 1471 1471 1472 1472 1472 1473 1473 1473 1473 1473 1473 1473 1472 1472 1472 1472 1472 1472 1472 1472 1472 1472 1471 1471 1471 1470 1470 1469 1468 1468 1467 1467 1466 1465 1464 1464 1463 1462 1462 1461 1460 1460 1459 1458 1458 1457 1456 1456 1455 1454 1454 1453 1453 1453 1452 1451 1451 1450 1450 1449 1449 1449 1448 1448 1448 1447
1470 1470 1470 1471 1471 1471 1471 1472 1472 1472 1472 1472 1472 1471 1471 1471 1471 1471 1470 1470 1470 1470 1470 1470 1470 1470 1470 1469 1469 1468 1468 1467 1466 1465 1465 1464 1463 1463 1462 1461 1460 1459 1459 1458 1458 1457 1457 1456 1455 1454 1453 1453 1453 1452 1451 1451 1450 1450 1449 1448 1448 1447 1447 1447 1447 1446 1446 1445 1445
1470 1470 1470 1470 1470 1471 1471 1471 1471 1471 1471 1471 1471 1470 1470 1470 1469 1469 1469 1469 1469 1469 1469 1469 1469 1469 1468 1468 1467 1467 1466 1465 1465 1464 1463 1462 1462 1461 1460 1459 1459 1458 1457 1457 1456 1456 1455 1454 1453 1453 1452 1451 1451 1450 1449 1448 1448 1447 1447 1446 1445 1445 1444 1444 1444 1444 1443 1443 1443
1469 1469 1470 1470 1470 1470 1471 1471 1471 1470 1470 1470 1469 1469 1469 1468 1468 1468 1468 1468 1468 1468 1468 1468 1468 1468 1467 1467 1466 1465 1465 1464 1463 1463 1462 1461 1460 1459 1459 1458 1458 1457 1456 1455 1455 1454 1453 1452 1452 1451 1450 1449 1448 1448 1447 1446 1446 1445 1444 1443 1443 1443 1442 1441 1441 1441 1441 1440 1440
1469 1469 1469 1470 1470 1470 1470 1470 1469 1469 1469 1468 1468 1468 1467 1467 1467 1467 1467 1467 1467 1467 1467 1467 1467 1466 1466 1465 1464 1464 1463 1463 1462 1461 1460 1459 1459 1458 1457 1456 1455 1455 1454 1453 1453 1452 1451 1450 1449 1448 1448 1447 1446 1445 1445 1444 1443 1443 1442 1441 1441 1440 1439 1439 1439 1438 1438 1438 1438
1469 1469 1469 1469 1469 1469 1469 1468 1468 1468 1468 1467 1467 1466 1466 1466 1466 1467 1467 1467 1467 1466 1466 1466 1465 1465 1464 1464 1463 1462 1462 1461 1460 1459 1458 1458 1457 1456 1455 1454 1453 1453 1452 1451 1450 1449 1449 1448 1447 1446 1445 1444 1443 1443 1443 1442 1441 1440 1440 1439 1438 1438 1437 1437 1436 1436 1436 1435 1435
1468 1469 1468 1468 1468 1468 1468 1468 1468 1467 1467 1466 1466 1466 1466 1466 1466 1466 1466 1466 1466 1465 1465 1464 1464 1463 1463 1462 1462 1461 1460 1459 1458 1457 1456 1455 1454 1454 1453 1452 1451 1450 1449 1448 1448 1447 1446 1446 1445 1444 1443 1442 1441 1441 1440 1439 1439 1438 1437 1437 1436 1435 1435 1434 1434 1434 1433 1433 1432
1468 1468 1468 1468 1467 1467 1467 1467 1467 1466 1466 1466 1466 1466 1466 1466 1466 1465 1465 1465 1464 1464 1463 1463 1462 1462 1461 1461 1460 1459 1458 1457 1456 1455 1454 1453 1452 1451 1451 1450 1449 1448 1447 1446 1445 1445 1444 1443 1442 1442 1441 1440 1439 1438 1437 1437 1436 1435 1435 1434 1433 1433 1433 1432 1432 1431 1431 1431 1430
1467 1467 1467 1467 1467 1467 1467 1466 1466 1466 1466 1465 1465 1465 1465 1465 1464 1464 1464 1464 1463 1463 1462 1461 1461 1460 1459 1459 1458 1457 1456 1455 1454 1453 1452 1451 1450 1449 1448 1447 1447 1446 1445 1444 1443 1442 1441 1440 1440 1439 1438 1437 1436 1435 1435 1434 1433 1433 1432 1431 1431 1430 1430 1430 1429 1429 1428 1428 1427
1467 1466 1466 1466 1466 1466 1466 1465 1465 1465 1465 1464 1464 1464 1464 1463 1463 1463 1463 1463 1462 1461 1460 1460 1459 1458 1458 1457 1456 1455 1454 1453 1452 1451 1450 1449 1448 1447 1446 1445 1444 1443 1443 1442 1440 1439 1438 1438 1437 1436 1435 1434 1433 1433 1432 1431 1430 1430 1429 1429 1428 1428 1428 1427 1427 1426 1425 1425 1424
1465 1465 1465 1465 1465 1465 1464 1464 1464 1464 1463 1463 1463 1463 1463 1463 1462 1462 1461 1461 1460 1460 1459 1458 1457 1457 1456 1455 1454 1453 1452 1451 1450 1449 1448 1447 1446 1445 1444 1443 1442 1441 1440 1439 1438 1437 1436 1435 1434 1433 1433 1432 1431 1430 1429 1428 1428 1427 1427 1426 1426 1425 1424 1424 1423 1423 1422 1422 1421
1464 1464 1464 1464 1463 1463 1463 1463 1463 1463 1462 1462 1462 1461 1461 1461 1461 1460 1460 1459 1459 1458 1457 1456 1456 1455 1454 1453 1452 1451 1450 1449 1448 1447 1446 1444 1443 1442 1441 1440 1439 1438 1437 1436 1435 1434 1433 1433 1432 1431 1430 1429 1428 1427 1426 1426 1425 1425 1424 1423 1423 1422 1421 1421 1420 1419 1419 1418 1418
1463 1463 1463 1462 1462 1462 1462 1462 1461 1461 1460 1460 1460 1460 1460 1460 1459 1459 1458 1458 1457 1456 1456 1455 1454 1453 1452 1451 1450 1449 1448 1447 1446 1444 1443 1442 1441 1440 1439 1438 1437 1435 1434 1433 1433 1432 1431 1430 1429 1428 1427 1426 1426 1425 1424 1423 1423 1422 1421 1420 1419 1418 1418 1417 1417 1416 1415 1415 1414
1461 1461 1460 1460 1460 1460 1460 1460 1459 1459 1459 1459 1459 1459 1458 1458 1458 1457 1457 1456 1456 1455 1454 1453 1452 1451 1450 1449 1448 1447 1445 1444 1443 1442 1441 1439 1438 1437 1436 1435 1434 1433 1432 1431 1430 1429 1428 1428 1427 1426 1425 1424 1423 1423 1422 1421 1420 1419 1418 1417 1416 1415 1414 1414 1413 1413 1412 1411 1410
1458 1458 1458 1458 1458 1458 1458 1458 1458 1458 1458 1458 1458 1458 1457 1457 1456 1456 1455 1455 1454 1453 1452 1451 1450 1449 1448 1447 1446 1444 1443 1442 1440 1439 1438 1437 1436 1435 1434 1433 1432 1431 1430 1429 1428 1427 1426 1425 1424 1424 1423 1422 1421 1420 1419 1418 1417 1416 1415 1413 1413 1412 1411 1410 1410 1409 1408 1407 1406
1456 1456 1456 1456 1456 1456 1457 1457 1457 1457 1457 1457 1457 1456 1456 1456 1455 1454 1454 1453 1452 1451 1450 1449 1448 1447 1446 1444 1443 1442 1440 1439 1438 1436 1435 1434 1433 1433 1432 1431 1430 1429 1428 1427 1426 1425 1424 1423 1423 1422 1421 1419 1418 1417 1416 1415 1414 1413 1412 1411 1409 1408 1408 1407 1406 1406 1405 1404 1403
1455 1455 1455 1455 1455 1455 1456 1456 1456 1456 1456 1456 1456 1455 1455 1454 1453 1453 1452 1451 1450 1449 1448 1447 1446 1444 1443 1442 1441 1439 1438 1437 1435 1434 1433 1432 1431 1430 1429 1428 1428 1427 1426 1425 1424 1423 1423 1422 1421 1419 1418 1417 1415 1414 1413 1412 1411 1410 1409 1408 1407 1405 1404 1403 1403 1402 1401 1400 1400
1454 1454 1454 1454 1455 1455 1455 1455 1455 1455 1455 1455 1454 1454 1453 1453 1452 1451 1450 1449 1448 1447 1446 1445 1443 1442 1441 1439 1438 1437 1436 1434 1433 1432 1431 1430 1429 1428 1428 1427 1426 1425 1423 1423 1422 1421 1421 1420 1419 1418 1416 1414 1413 1411 1410 1409 1408 1407 1406 1405 1404 1403 1401 1400 1399 1398 1398 1397 1397
1453 1453 1454 1454 1455 1455 1455 1455 1454 1454 1454 1453 1453 1453 1452 1451 1451 1450 1448 1447 1446 1445 1443 1442 1441 1439 1438 1437 1436 1435 1434 1433 1432 1431 1430 1429 1428 1427 1426 1425 1424 1423 1422 1421 1420 1419 1419 1418 1417 1415 1413 1412 1410 1408 1407 1406 1405 1404 1403 1402 1401 1400 1398 1397 1396 1395 1395 1394 1394
1453 1454 1454 1454 1454 1454 1454 1453 1453 1453 1453 1452 1452 1451 1450 1450 1449 1448 1446 1445 1444 1443 1441 1440 1439 1438 1436 1435 1434 1433 1432 1431 1430 1429 1428 1427 1426 1425 1424 1423 1422 1421 1420 1419 1418 1418 1417 1415 1414 1413 1411 1409 1408 1406 1405 1404 1403 1401 1400 1399 1398 1397 1395 1394 1393 1393 1392 1391 1391
1453 1453 1453 1453 1453 1453 1453 1452 1452 1452 1451 1451 1450 1449 1449 1448 1447 1446 1444 1443 1442 1440 1439 1438 1437 1436 1434 1433 1432 1431 1430 1429 1428 1427 1426 1425 1424 1423 1422 1421 1420 1419 1418 1417 1416 1415 1414 1413 1411 1410 1408 1407 1405 1404 1402 1401 1399 1398 1397 1396 1394 1393 1393 1392 1391 1390 1389 1389 1388
1452 1452 1452 1452 1452 1452 1451 1451 1451 1450 1450 1449 1448 1448 1447 1446 1445 1443 1442 1441 1440 1439 1438 1436 1435 1434 1433 1431 1430 1429 1428 1427 1426 1425 1424 1423 1422 1421 1420 1419 1418 1417 1416 1415 1413 1412 1411 1409 1408 1407 1405 1404 1403 1401 1399 1398 1396 1395 1393 1392 1391 1391 1390 1389 1388 1388 1387 1386 1385
1451 1451 1451 1450 1450 1450 1450 1449 1449 1448 1448 1448 1447 1446 1445 1444 1443 1442 1440 1439 1438 1437 1435 1434 1433 1432 1430 1429 1428 1427 1426 1425 1424 1423 1422 1421 1420 1419 1418 1416 1415 1414 1413 1412 1411 1409 1408 1406 1405 1403 1402 1401 1399 1398 1396 1394 1393 1392 1391 1390 1389 1388 1387 1387 1386 1385 1384 1383 1383
1449 1449 1449 1449 1448 1448 1448 1448 1447 1447 1446 1446 1445 1444 1443 1442 1441 1440 1438 1437 1436 1434 1433 1432 1431 1430 1428 1428 1427 1426 1424 1423 1422 1421 1420 1419 1418 1416 1415 1414 1413 1412 1410 1409 1408 1406 1404 1403 1402 1400 1398 1397 1396 1394 1393 1392 1390 1389 1388 1388 1387 1386 1385 1384 1383 1383 1382 1381 1380
1448 1448 1448 1448 1447 1447 1446 1446 1445 1445 1444 1444 1443 1442 1441 1440 1439 1438 1436 1435 1434 1433 1431 1430 1429 1428 1427 1426 1425 1423 1423 1421 1420 1419 1418 1417 1416 1414 1413 1412 1410 1409 1408 1406 1405 1403 1401 1400 1398 1397 1395 1394 1393 1391 1390 1389 1388 1387 1386 1385 1384 1383 1383 1382 1381 1380 1379 1379 1378
1447 1447 1446 1446 1445 1445 1444 1444 1443 1443 1443 1442 1441 1440 1439 1438 1437 1436 1434 1433 1432 1431 1430 1429 1428 1427 1425 1424 1423 1422 1420 1419 1418 1417 1416 1415 1413 1412 1411 1409 1408 1406 1405 1403 1402 1400 1398 1397 1395 1394 1393 1391 1390 1389 1388 1387 1386 1385 1384 1383 1382 1381 1380 1379 1379 1378 1377 1376 1376
1446 1445 1445 1444 1444 1443 1443 1443 1442 1442 1441 1440 1439 1438 1438 1437 1435 1434 1433 1431 1430 1429 1428 1427 1426 1425 1423 1422 1421 1420 1419 1417 1416 1415 1414 1413 1411 1410 1408 1407 1405 1403 1402 1401 1399 1397 1396 1394 1393 1391 1390 1389 1388 1387 1386 1385 1384 1383 1382 1380 1379 1379 1378 1377 1377 1376 1375 1374 1373
1445 1444 1443 1443 1442 1442 1442 1441 1441 1440 1439 1439 1438 1437 1436 1434 1433 1432 1431 1430 1429 1428 1426 1425 1424 1423 1422 1420 1419 1418 1417 1416 1414 1413 1412 1411 1409 1408 1406 1404 1402 1401 1399 1398 1396 1394 1393 1392 1390 1389 1388 1388 1386 1385 1384 1383 1381 1380 1379 1378 1377 1376 1375 1375 1374 1373 1372 1372 1371
1444 1443 1442 1442 1441 1441 1440 1440 1439 1439 1438 1437 1436 1435 1434 1433 1432 1431 1429 1428 1427 1426 1424 1423 1422 1421 1419 1418 1417 1416 1415 1414 1413 1411 1410 1408 1407 1405 1403 1401 1399 1398 1397 1395 1393 1392 1391 1389 1388 1388 1387 1386 1384 1383 1382 1381 1379 1378 1377 1376 1375 1374 1373 1372 1371 1371 1370 1369 1368
1443 1442 1441 1440 1440 1439 1439 1438 1438 1437 1436 1435 1434 1433 1433 1431 1430 1429 1428 1427 1425 1424 1423 1421 1420 1419 1418 1417 1415 1414 1413 1412 1411 1409 1408 1406 1405 1403 1401 1399 1397 1395 1394 1393 1391 1390 1388 1388 1387 1386 1385 1384 1383 1381 1380 1378 1377 1375 1374 1373 1372 1371 1371 1370 1369 1368 1368 1367 1367
1441 1440 1440 1439 1439 1438 1438 1437 1437 1436 1435 1434 1433 1432 1431 1430 1428 1427 1426 1425 1424 1422 1421 1419 1418 1417 1416 1415 1413 1412 1411 1410 1409 1408 1406 1404 1403 1401 1399 1397 1395 1393 1391 1390 1389 1388 1387 1386 1385 1384 1383 1382 1381 1379 1378 1376 1374 1373 1372 1371 1370 1369 1369 1368 1368 1367 1365 1364 1363
1439 1439 1439 1438 1438 1437 1436 1436 1435 1434 1433 1433 1431 1430 1429 1428 1427 1425 1424 1423 1422 1421 1419 1418 1417 1415 1414 1413 1412 1410 1409 1408 1407 1405 1404 1402 1400 1399 1397 1395 1393 1390 1389 1388 1387 1386 1385 1384 1383 1382 1382 1380 1379 1377 1376 1374 1373 1371 1370 1369 1369 1368 1367 1366 1365 1364 1363 1361 1360
1438 1438 1438 1437 1437 1436 1435 1434 1433 1433 1432 1431 1430 1429 1428 1426 1425 1424 1423 1421 1420 1419 1418 1416 1415 1413 1413 1411 1410 1409 1407 1406 1404 1403 1402 1400 1398 1396 1394 1393 1390 1388 1387 1386 1385 1384 1383 1383 1382 1381 1380 1379 1377 1376 1374 1373 1371 1370 1369 1368 1367 1366 1365 1363 1362 1361 1360 1358 1357